Starlink 30944

operational
NORAD ID: 58451 Int'l Des: 2023-183 Owner: SPXS Country: US Constellation: starlink
LEOCIRCULAR

Über Starlink 30944

Beschreibung wird geladen...

Live-Position

3D-Globus wird geladen...

Nächste Überflüge

Höhenverlauf

Altitude vs Time

uPlot chart will show altitude changes over time

Zweizeiliger Elementsatz

1 58451U 23183Q 25350.69280566 .00001081 00000-0 95084-4 0 9997
2 58451 43.0025 133.9378 0001221 271.1038 88.9664 15.02537261114202
Epoch: 16. Dez. 2025 • Age: 21 hours

Aktueller Status

Höhe 562.3 km
Geschwindigkeit 7.59 km/s
Subsatellitenpunkt 40.11°N, 98.52°W
Startdatum 28. Nov. 2023
Alter 2 years
Typ internet

Technische Details

Klassifizierung Payload
Masse 730.00 kg
Trockenmasse 700.00 kg
Gesamtmasse 730.00 kg
Länge 0.30 m
Durchmesser 4.10 m
Spannweite 29.00 m
Form Box + pan
Hersteller SPXS
Bus-Typ Starlink V2M
Phasenstatus In Orbit
Besitzer/Staat SPXS/US

Große Konstellationen

Loading constellations...